Weather observations for the past three days for
SULLIVAN
Imperial (Metric)
Date Time (cdt) Wind (mph) Vis. (mi.) Weather Sky Cond. Temperature (ºF) Relative Humidity Wind Chill (°F) Heat Index (°F) Pressure Precipitation (in)
Air Dwpt 6 hour altimeter (in) sea level (mb) 1 hr 3 hr 6 hr
Max. Min.
06 13:55 NE 8 10.00 Fair CLR CLR 0 0 0% 30.01 0.0
06 13:35 NE 7 10.00 Partly Cloudy SCT034 SCT034 0 0 0% 30.02 0.0
06 13:15 NE 10 10.00 Partly Cloudy SCT032 SCT032 0 0 0% 30.02 0.0
06 12:55 E 8 10.00 Partly Cloudy SCT030 SCT030 0 0 0% 30.04 0.0
06 12:35 NE 7 10.00 Mostly Cloudy BKN030 BKN030 0 0 0% 30.04 0.0
06 12:15 E 8 10.00 Mostly Cloudy BKN030 BKN036 BKN030 BKN036 0 0 0% 30.05 0.0
06 11:55 E 8 10.00 Mostly Cloudy BKN026 BKN032 BKN026 BKN032 0 0 0% 30.05 0.0
06 11:35 E 5 10.00 Fair CLR CLR 0 0 0% 30.05 0.0
06 11:15 E 3 10.00 Fair CLR CLR 0 0 0% 30.05 0.0
06 10:55 NE 5 10.00 Fair CLR CLR 0 0 0% 30.06 0.0
06 10:35 E 5 10.00 Fair CLR CLR 0 0 0% 30.06 0.0
06 10:15 E 6 10.00 Fair CLR CLR 0 0 0% 30.05 0.0
06 09:55 NE 7 10.00 Fair CLR CLR 0 0 0% 30.04 0.0
06 09:35 E 6 10.00 Fair CLR CLR 0 0 0% 30.04 0.0
06 09:15 E 5 10.00 Fair CLR CLR 0 0 0% 30.04 0.0
06 08:55 E 8 10.00 Fair CLR CLR 0 0 0% 30.04 0.0
06 08:35 E 8 10.00 Fair CLR CLR 0 0 0% 30.04 0.0
06 08:15 E 9 10.00 Fair CLR CLR 0 0 0% 30.04 0.0
06 07:55 E 7 10.00 Fair CLR CLR 0 0 0% 30.04 0.0
06 07:35 E 5 10.00 Fair CLR CLR 0 0 0% 30.03 0.0
06 07:15 E 3 10.00 Fair CLR CLR 0 0 0% 30.03 0.0
06 06:55 Calm 10.00 Fair CLR CLR 0 0 0% 30.02 0.0
06 06:35 E 3 10.00 Fair CLR CLR 0 0 0% 30.01 0.0
06 06:15 E 5 10.00 Fair CLR CLR 0 0 0% 30.01 0.0
06 05:55 E 7 10.00 Fair CLR CLR 0 0 0% 30.01 0.0
06 05:35 E 5 10.00 Fair CLR CLR 0 0 0% 30 0.0
06 05:15 NE 5 10.00 Fair CLR CLR 0 0 0% 30 0.0
06 04:55 E 6 10.00 Fair CLR CLR 0 0 0% 30 0.0
06 04:35 E 6 10.00 Fair CLR CLR 0 0 0% 29.99 0.0
06 04:15 NE 5 10.00 Fair CLR CLR 0 0 0% 29.99 0.0
06 03:55 E 3 10.00 Fair CLR CLR 0 0 0% 29.98 0.0
06 03:35 E 3 10.00 Partly Cloudy SCT075 SCT075 0 0 0% 29.97 0.0
06 03:15 Calm 10.00 Partly Cloudy SCT075 SCT075 0 0 0% 29.97 0.0
06 02:55 Calm 10.00 Fair CLR CLR 0 0 0% 29.97 0.0
06 02:35 Calm 10.00 Fair CLR CLR 0 0 0% 29.97 0.0
06 02:15 Calm 10.00 Fair CLR CLR 0 0 0% 29.98 0.0
06 01:55 Calm 10.00 Fair CLR CLR 0 0 0% 29.98 0.0
06 01:35 Calm 10.00 Fair CLR CLR 0 0 0% 29.99 0.0
06 01:15 E 3 10.00 Fair CLR CLR 0 0 0% 29.99 0.0
06 00:55 Calm 10.00 Fair CLR CLR 0 0 0% 29.99 0.0
06 00:35 Calm 10.00 Fair CLR CLR 0 0 0% 29.99 0.0
06 00:15 Calm 10.00 Partly Cloudy SCT080 SCT080 0 0 0% 29.98 0.0
05 23:55 Calm 10.00 Partly Cloudy SCT080 SCT080 0 0 0% 29.99 0.0
05 23:35 Calm 10.00 Fair CLR CLR 0 0 0% 29.98 0.0
05 23:15 Calm 10.00 Fair CLR CLR 0 0 0% 29.98 0.0
05 22:55 Calm 10.00 Fair CLR CLR 0 0 0% 29.98 0.0
05 22:35 Calm 10.00 Fair CLR CLR 0 0 0% 29.98 0.0
05 22:15 Calm 10.00 Fair CLR CLR 0 0 0% 29.97 0.0
05 21:55 Calm 10.00 Fair CLR CLR 0 0 0% 29.96 0.0
05 21:35 E 3 10.00 Fair CLR CLR 0 0 0% 29.96 0.0
05 21:15 S 5 10.00 Fair CLR CLR 0 0 0% 29.95 0.0
05 20:55 Calm 10.00 Fair CLR CLR 0 0 0% 29.94 0.0
05 20:35 Calm 10.00 Fair CLR CLR 0 0 0% 29.93 0.0
05 20:15 Calm 10.00 Fair CLR CLR 0 0 0% 29.93 0.0
05 19:35 N 5 10.00 Fair CLR CLR 0 0 0% 29.92 0.0
05 19:15 N 3 10.00 Fair CLR CLR 0 0 0% 29.92 0.0
05 18:15 NE 3 10.00 Fair CLR CLR 0 0 0% 29.92 0.0
05 17:55 NE 5 10.00 Fair CLR CLR 0 0 0% 29.92 0.0
05 17:35 Calm 10.00 Partly Cloudy SCT075 SCT075 0 0 0% 29.92 0.0
05 17:15 N 3 10.00 Partly Cloudy SCT075 SCT075 0 0 0% 29.92 0.0
05 16:55 N 3 10.00 Fair CLR CLR 0 0 0% 29.92 0.0
05 16:35 Calm 10.00 Partly Cloudy SCT080 SCT080 0 0 0% 29.92 0.0
05 16:15 NE 7 10.00 Partly Cloudy SCT080 SCT080 0 0 0% 29.92 0.0
05 15:55 Calm 10.00 Fair CLR CLR 0 0 0% 29.93 0.0
05 15:35 NW 3 0.00 NULL NULL 0 0 0% 29.94 0.0
05 14:55 Calm 10.00 Partly Cloudy SCT065 SCT075 SCT100 SCT065 SCT075 SCT100 0 0 0% 29.96 0.0
05 12:55 Calm 10.00 Fair CLR CLR 0 0 0% 29.99 0.0
05 12:35 NW 3 10.00 Fair CLR CLR 0 0 0% 30 0.0
05 12:15 Calm 10.00 Fair CLR CLR 0 0 0% 30 0.0
05 11:55 NW 5 10.00 Fair CLR CLR 0 0 0% 30.01 0.0
05 11:35 W 3 10.00 Fair CLR CLR 0 0 0% 30.01 0.0
05 11:15 NW 5 10.00 Fair CLR CLR 0 0 0% 30.01 0.0
05 10:55 NW 6 10.00 Fair CLR CLR 0 0 0% 30.01 0.0
05 10:35 NW 6 10.00 Fair CLR CLR 0 0 0% 30.01 0.0
05 10:15 W 7 10.00 Fair CLR CLR 0 0 0% 30.01 0.0
05 09:55 NW 5 10.00 Fair CLR CLR 0 0 0% 30.01 0.0
05 09:35 W 9 10.00 Fair CLR CLR 0 0 0% 30.01 0.0
05 09:15 W 7 10.00 Fair CLR CLR 0 0 0% 30.01 0.0
05 08:55 W 7 10.00 Fair CLR CLR 0 0 0% 30.01 0.0
05 08:35 W 7 10.00 Fair CLR CLR 0 0 0% 30.01 0.0
05 08:15 W 8 10.00 Fair CLR CLR 0 0 0% 30.01 0.0
05 07:55 SW 5 10.00 Fair CLR CLR 0 0 0% 30 0.0
05 06:35 W 6 10.00 Fair CLR CLR 0 0 0% 29.98 0.0
05 06:15 W 7 10.00 Fair CLR CLR 0 0 0% 29.98 0.0
05 05:55 W 6 10.00 Fair CLR CLR 0 0 0% 29.97 0.0
05 05:35 W 7 10.00 Fair CLR CLR 0 0 0% 29.97 0.0
05 05:15 SW 7 10.00 Fair CLR CLR 0 0 0% 29.97 0.0
05 04:55 SW 6 10.00 Fair CLR CLR 0 0 0% 29.98 0.0
05 04:35 SW 6 10.00 Fair CLR CLR 0 0 0% 29.98 0.0
05 04:15 SW 5 10.00 Fair CLR CLR 0 0 0% 29.98 0.0
05 03:55 Calm 10.00 Fair CLR CLR 0 0 0% 29.98 0.0
05 03:35 SW 3 10.00 Fair CLR CLR 0 0 0% 29.98 0.0
05 03:15 SW 5 10.00 Fair CLR CLR 0 0 0% 29.97 0.0
05 02:55 S 5 10.00 Fair CLR CLR 0 0 0% 29.98 0.0
05 02:35 SW 6 10.00 Fair CLR CLR 0 0 0% 29.97 0.0
05 02:15 SW 7 10.00 Fair CLR CLR 0 0 0% 29.98 0.0
05 01:55 S 7 10.00 Partly Cloudy SCT080 SCT080 0 0 0% 29.98 0.0
05 01:35 SW 5 10.00 Partly Cloudy SCT080 SCT080 0 0 0% 29.98 0.0
05 01:15 S 6 10.00 Partly Cloudy SCT080 SCT080 0 0 0% 29.99 0.0
05 00:55 S 5 10.00 Partly Cloudy SCT080 SCT080 0 0 0% 29.99 0.0
05 00:35 S 6 10.00 Partly Cloudy SCT080 SCT080 0 0 0% 29.99 0.0
05 00:15 S 6 10.00 Partly Cloudy SCT080 SCT080 0 0 0% 29.98 0.0
04 23:55 S 5 10.00 Partly Cloudy SCT080 SCT080 0 0 0% 29.99 0.0
04 23:35 S 5 10.00 Mostly Cloudy BKN080 BKN080 0 0 0% 29.98 0.0
04 23:15 S 3 10.00 Mostly Cloudy BKN080 BKN080 0 0 0% 29.99 0.0
04 22:55 S 3 10.00 Fair CLR CLR 0 0 0% 29.99 0.0
04 22:35 S 3 10.00 Partly Cloudy SCT080 SCT080 0 0 0% 29.99 0.0
04 22:15 S 5 10.00 Partly Cloudy SCT080 SCT080 0 0 0% 30 0.0
04 21:55 S 3 10.00 Fair CLR CLR 0 0 0% 30 0.0
04 21:35 S 3 10.00 Fair CLR CLR 0 0 0% 29.99 0.0
04 21:15 S 5 10.00 Fair CLR CLR 0 0 0% 29.99 0.0
04 20:55 Calm 10.00 Fair CLR CLR 0 0 0% 29.98 0.0
04 20:35 Calm 10.00 Partly Cloudy SCT080 SCT080 0 0 0% 29.97 0.0
04 20:15 Calm 10.00 Fair CLR CLR 0 0 0% 29.96 0.0
04 19:55 Calm 10.00 Fair CLR CLR 0 0 0% 29.96 0.0
04 19:35 Calm 10.00 Fair CLR CLR 0 0 0% 29.95 0.0
04 19:15 Calm 10.00 Fair CLR CLR 0 0 0% 29.95 0.0
04 18:55 Calm 10.00 Fair CLR CLR 0 0 0% 29.95 0.0
04 18:35 Calm 10.00 Fair CLR CLR 0 0 0% 29.95 0.0
04 18:15 Calm 10.00 Fair CLR CLR 0 0 0% 29.95 0.0
04 17:55 Calm 10.00 Fair CLR CLR 0 0 0% 29.96 0.0
04 17:35 Calm 10.00 Fair CLR CLR 0 0 0% 29.96 0.0
04 17:15 Calm 10.00 Fair CLR CLR 0 0 0% 29.96 0.0
04 16:55 Calm 10.00 Fair CLR CLR 0 0 0% 29.97 0.0
04 16:35 SW 5 10.00 Fair CLR CLR 0 0 0% 29.97 0.0
04 16:15 SW 6 10.00 Fair CLR CLR 0 0 0% 29.98 0.0
04 15:55 SE 3 10.00 Fair CLR CLR 0 0 0% 29.98 0.0
04 15:35 S 3 10.00 Partly Cloudy SCT060 SCT060 0 0 0% 29.99 0.0
04 15:15 Calm 10.00 Mostly Cloudy BKN060 BKN060 0 0 0% 30 0.0
04 14:55 Calm 10.00 Partly Cloudy SCT060 SCT060 0 0 0% 30 0.0
04 14:35 Calm 10.00 Partly Cloudy SCT060 SCT060 0 0 0% 30.01 0.0
04 14:15 SE 3 10.00 Fair CLR CLR 0 0 0% 30.02 0.0
04 13:55 SW 3 10.00 Partly Cloudy SCT055 SCT055 0 0 0% 30.02 0.0
04 13:35 SW 8 10.00 Fair CLR CLR 0 0 0% 30.02 0.0
04 13:15 Calm 10.00 Partly Cloudy SCT050 SCT050 0 0 0% 30.03 0.0
04 12:55 SW 5 10.00 Partly Cloudy SCT050 SCT050 0 0 0% 30.04 0.0
04 12:35 Calm 10.00 Fair CLR CLR 0 0 0% 30.04 0.0
04 12:15 Calm 10.00 Fair CLR CLR 0 0 0% 30.05 0.0
04 11:55 NW 3 10.00 Fair CLR CLR 0 0 0% 30.06 0.0
04 11:35 NW 8 10.00 Fair CLR CLR 0 0 0% 30.06 0.0
04 11:15 W 5 10.00 Fair CLR CLR 0 0 0% 30.06 0.0
04 10:35 W 6 10.00 Fair CLR CLR 0 0 0% 30.05 0.0
04 10:15 W 8 10.00 Fair CLR CLR 0 0 0% 30.05 0.0
04 09:55 W 7 10.00 Fair CLR CLR 0 0 0% 30.05 0.0
04 09:35 W 9 10.00 Fair CLR CLR 0 0 0% 30.05 0.0
04 09:15 W 9 10.00 Fair CLR CLR 0 0 0% 30.05 0.0
04 08:55 W 10 10.00 Fair CLR CLR 0 0 0% 30.04 0.0
04 08:35 SW 8 10.00 Fair CLR CLR 0 0 0% 30.04 0.0
04 08:15 SW 7 10.00 Fair CLR CLR 0 0 0% 30.05 0.0
04 07:55 SW 3 10.00 Fair CLR CLR 0 0 0% 30.04 0.0
04 07:35 S 5 10.00 Fair CLR CLR 0 0 0% 30.04 0.0
04 07:15 SW 5 10.00 Fair CLR CLR 0 0 0% 30.03 0.0
04 06:55 S 3 10.00 Fair CLR CLR 0 0 0% 30.03 0.0
04 06:35 SW 5 10.00 Fair CLR CLR 0 0 0% 30.02 0.0
04 06:15 SW 3 10.00 Fair CLR CLR 0 0 0% 30.02 0.0
04 05:55 S 5 10.00 Fair CLR CLR 0 0 0% 30.01 0.0
04 05:35 SW 3 10.00 Fair CLR CLR 0 0 0% 30.01 0.0
04 05:15 Calm 10.00 Fair CLR CLR 0 0 0% 30.01 0.0
04 04:55 S 3 10.00 Fair CLR CLR 0 0 0% 30.01 0.0
04 04:35 SW 3 10.00 Fair CLR CLR 0 0 0% 30 0.0
04 04:15 SW 5 10.00 Fair CLR CLR 0 0 0% 30 0.0
04 03:55 S 3 10.00 Fair CLR CLR 0 0 0% 30 0.0
04 03:35 S 5 10.00 Fair CLR CLR 0 0 0% 29.99 0.0
04 03:15 S 3 10.00 Fair CLR CLR 0 0 0% 29.99 0.0
04 02:55 SW 5 10.00 Fair CLR CLR 0 0 0% 29.99 0.0
04 02:35 S 5 10.00 Fair CLR CLR 0 0 0% 29.99 0.0
04 02:15 S 5 10.00 Fair CLR CLR 0 0 0% 29.99 0.0
04 01:55 SW 5 10.00 Fair CLR CLR 0 0 0% 29.99 0.0
04 01:35 S 6 10.00 Fair CLR CLR 0 0 0% 29.99 0.0
04 01:15 S 7 10.00 Fair CLR CLR 0 0 0% 29.99 0.0
04 00:55 S 7 10.00 Fair CLR CLR 0 0 0% 29.98 0.0
04 00:35 S 8 10.00 Fair CLR CLR 0 0 0% 29.98 0.0
04 00:15 S 7 10.00 Fair CLR CLR 0 0 0% 29.98 0.0
03 23:55 S 8 10.00 Fair CLR CLR 0 0 0% 29.99 0.0
03 23:35 S 6 10.00 Fair CLR CLR 0 0 0% 29.99 0.0
03 23:15 S 6 10.00 Fair CLR CLR 0 0 0% 29.99 0.0
03 22:55 S 6 10.00 Fair CLR CLR 0 0 0% 29.99 0.0
03 22:35 S 5 10.00 Fair CLR CLR 0 0 0% 29.99 0.0
03 22:15 S 6 10.00 Fair CLR CLR 0 0 0% 29.98 0.0
03 21:55 S 5 10.00 Fair CLR CLR 0 0 0% 29.98 0.0
03 21:35 S 5 10.00 Fair CLR CLR 0 0 0% 29.98 0.0
03 20:55 S 5 10.00 Fair CLR CLR 0 0 0% 29.97 0.0
03 20:35 Calm 10.00 Fair CLR CLR 0 0 0% 29.97 0.0
03 20:15 SE 3 10.00 Fair CLR CLR 0 0 0% 29.96 0.0
03 19:55 S 3 10.00 Fair CLR CLR 0 0 0% 29.96 0.0
03 19:35 SE 3 10.00 Fair CLR CLR 0 0 0% 29.95 0.0
03 19:15 SE 3 10.00 Fair CLR CLR 0 0 0% 29.95 0.0
03 18:55 Calm 10.00 Fair CLR CLR 0 0 0% 29.95 0.0
03 18:35 Calm 10.00 Fair CLR CLR 0 0 0% 29.95 0.0
03 17:55 SE 5 10.00 Fair CLR CLR 0 0 0% 29.95 0.0
03 17:35 SE 5 10.00 Fair CLR CLR 0 0 0% 29.95 0.0
03 17:15 SE 6 10.00 Fair CLR CLR 0 0 0% 29.95 0.0
03 16:55 S 8 10.00 Fair CLR CLR 0 0 0% 29.95 0.0
03 16:35 SE 5 10.00 Fair CLR CLR 0 0 0% 29.95 0.0
03 16:15 S 7 10.00 Fair CLR CLR 0 0 0% 29.96 0.0
03 15:55 S 7 10.00 Fair CLR CLR 0 0 0% 29.96 0.0
03 15:35 Calm 10.00 Fair CLR CLR 0 0 0% 29.97 0.0
03 15:15 SE 5 10.00 Partly Cloudy SCT055 SCT055 0 0 0% 29.97 0.0
03 14:55 S 3 10.00 Partly Cloudy SCT055 SCT055 0 0 0% 29.98 0.0
03 14:35 S 8 10.00 Partly Cloudy SCT055 SCT055 0 0 0% 29.99 0.0
03 14:15 SE 5 10.00 Partly Cloudy SCT055 SCT055 0 0 0% 30 0.0
Date Time (cdt) Wind (mph) Vis. (mi.) Weather Sky Cond. Air Dwpt Max. Min. Relative Humidity Wind Chill (°F) Heat Index (°F) altimeter (in) sea level (mb) 1 hr 3 hr 6 hr
6 hour
Temperature (ºF) Pressure Precipitation (in)